Weather History for KPNM - January, 2013

Change the Weather History Date:

Wednesday, January 16, 2013

  Actual Average Record
Temperature  
Mean Temperature 20 °F -  
Max Temperature 32 °F 18 °F 35 °F (1999)
Min Temperature 6 °F 2 °F -34 °F (2009)
Degree Days  
Heating Degree Days 45    
Moisture  
Dew Point 12 °F    
Average Humidity 65    
Maximum Humidity 93    
Minimum Humidity 36    
Precipitation  
Precipitation 0.00 in - - ()
Sea Level Pressure  
Sea Level Pressure 29.83 in    
Wind  
Wind Speed 12 mph (West)    
Max Wind Speed 17 mph    
Max Gust Speed 24 mph    
Visibility 9 miles    
Events Snow    
Averages and records for this station are not official NWS values.
T = Trace of Precipitation, MM = Missing Value Source: NWS Daily Summary

Daily Weather History Graph

Daily Weather History Graph

Search for Another Location

Airport or City:

Trip Planner

Search our weather history database for the weather conditions in past years. The results will help you decide how hot, cold, wet, or windy it might be!

Date:

Astronomy

Jan. 16, 2013 Rise Set
Actual Time 7:50 AM CST 4:58 PM CST
Civil Twilight 7:17 AM CST 5:31 PM CST
Nautical Twilight 6:40 AM CST 6:08 PM CST
Astronomical Twilight 6:05 AM CST 6:44 PM CST
Moon 10:07 AM CST (1/16) 11:11 PM CST (1/16)
Length of Visible Light 10h 14m
Length of Day
9h 08m
Waxing Crescent, 28% of the Moon is Illuminated
Jan 16
Waxing Crescent
Jan 18
First Quarter
Jan 26
Full
Feb 3
Last Quarter
Feb 10
New

Hourly Weather History & Observations

Time (CST) Temp. Windchill Dew Point Humidity Pressure Visibility Wind Dir Wind Speed Gust Speed Precip Events Conditions
12:11 AM 23.0 °F 10.1 °F 15.8 °F 74% 29.71 in 10.0 mi South 15.0 mph 20.7 mph N/A   Overcast
12:31 AM 24.8 °F 12.4 °F 15.8 °F 69% 29.70 in 10.0 mi South 15.0 mph 23.0 mph N/A   Overcast
12:52 AM 24.8 °F 11.9 °F 15.8 °F 69% 29.70 in 10.0 mi South 16.1 mph 21.9 mph N/A   Overcast
1:11 AM 24.8 °F 13.4 °F 15.8 °F 69% 29.67 in 5.0 mi South 12.7 mph - N/A Snow Light Snow
1:32 AM 24.8 °F 14.0 °F 15.8 °F 69% 29.67 in 7.0 mi South 11.5 mph 23.0 mph N/A Snow Light Snow
1:51 AM 24.8 °F 12.4 °F 15.8 °F 69% 29.65 in 10.0 mi South 15.0 mph 18.4 mph N/A   Overcast
2:11 AM 24.8 °F 13.4 °F 15.8 °F 69% 29.64 in 10.0 mi South 12.7 mph 20.7 mph N/A   Overcast
2:32 AM 26.6 °F 16.2 °F 15.8 °F 64% 29.64 in 10.0 mi SSW 11.5 mph 21.9 mph N/A   Overcast
2:51 AM 24.8 °F 12.4 °F 17.6 °F 74% 29.63 in 7.0 mi SSW 15.0 mph 24.2 mph N/A   Overcast
3:11 AM 24.8 °F 13.4 °F 17.6 °F 74% 29.63 in 5.0 mi SSW 12.7 mph 19.6 mph N/A   Haze
3:32 AM 24.8 °F 14.6 °F 19.4 °F 80% 29.62 in 10.0 mi SSW 10.4 mph 19.6 mph N/A   Overcast
3:51 AM 24.8 °F 14.6 °F 19.4 °F 80% 29.61 in 3.0 mi SSW 10.4 mph 16.1 mph N/A Snow Light Snow
4:11 AM 24.8 °F 14.0 °F 21.2 °F 86% 29.61 in 3.0 mi SSW 11.5 mph 17.3 mph N/A Snow Light Snow
4:32 AM 26.6 °F 16.8 °F 23.0 °F 86% 29.60 in 1.8 mi SSW 10.4 mph 17.3 mph N/A Snow Light Snow
4:51 AM 26.6 °F 16.8 °F 23.0 °F 86% 29.60 in 4.0 mi SSW 10.4 mph - N/A Snow Light Snow
5:11 AM 26.6 °F 18.2 °F 23.0 °F 86% 29.60 in 7.0 mi SW 8.1 mph - N/A   Overcast
5:32 AM 26.6 °F 18.2 °F 24.8 °F 93% 29.60 in 5.0 mi SW 8.1 mph - N/A   Overcast
5:51 AM 26.6 °F 20.0 °F 24.8 °F 93% 29.60 in 10.0 mi SW 5.8 mph - N/A   Overcast
6:32 AM 28.4 °F 20.4 °F 24.8 °F 86% 29.61 in 10.0 mi SW 8.1 mph - N/A   Overcast
6:51 AM 28.4 °F 20.4 °F 26.6 °F 93% 29.61 in 10.0 mi SW 8.1 mph - N/A   Overcast
7:11 AM 28.4 °F 21.2 °F 26.6 °F 93% 29.63 in 10.0 mi WSW 6.9 mph - N/A   Overcast
7:32 AM 28.4 °F 21.2 °F 26.6 °F 93% 29.63 in 10.0 mi SW 6.9 mph - N/A   Scattered Clouds
7:51 AM 28.4 °F 20.4 °F 26.6 °F 93% 29.63 in 10.0 mi SW 8.1 mph - N/A   Clear
8:11 AM 30.2 °F 21.9 °F 26.6 °F 86% 29.65 in 10.0 mi SW 9.2 mph - N/A   Clear
8:32 AM 30.2 °F 22.6 °F 26.6 °F 86% 29.65 in 10.0 mi SW 8.1 mph - N/A   Clear
8:51 AM 30.2 °F 23.4 °F 26.6 °F 86% 29.66 in 10.0 mi WSW 6.9 mph - N/A   Clear
9:11 AM 30.2 °F 23.4 °F 28.4 °F 93% 29.66 in 10.0 mi WSW 6.9 mph - N/A   Clear
9:32 AM 32.0 °F 24.2 °F 26.6 °F 80% 29.68 in 10.0 mi West 9.2 mph - N/A   Clear
9:51 AM 32.0 °F 24.8 °F 26.6 °F 80% 29.69 in 10.0 mi West 8.1 mph - N/A   Clear
10:11 AM 30.2 °F 18.5 °F 21.2 °F 69% 29.71 in 10.0 mi West 17.3 mph 24.2 mph N/A   Clear
10:32 AM 30.2 °F 19.8 °F 21.2 °F 69% 29.72 in 10.0 mi WNW 13.8 mph 18.4 mph N/A   Clear
10:51 AM 30.2 °F 19.3 °F 21.2 °F 69% 29.73 in 10.0 mi WNW 15.0 mph - N/A   Clear
11:11 AM 30.2 °F 18.9 °F 21.2 °F 69% 29.74 in 10.0 mi WNW 16.1 mph - N/A   Scattered Clouds
11:32 AM 28.4 °F 19.1 °F 21.2 °F 74% 29.75 in 10.0 mi WNW 10.4 mph - N/A   Scattered Clouds
11:51 AM 28.4 °F 16.6 °F 19.4 °F 69% 29.76 in 10.0 mi West 16.1 mph 19.6 mph N/A   Scattered Clouds
12:11 PM 28.4 °F 16.2 °F 19.4 °F 69% 29.77 in 10.0 mi WNW 17.3 mph - N/A   Scattered Clouds
12:32 PM 26.6 °F 15.2 °F 19.4 °F 74% 29.77 in 10.0 mi WNW 13.8 mph - N/A   Scattered Clouds
12:51 PM 26.6 °F 16.8 °F 19.4 °F 74% 29.77 in 10.0 mi WNW 10.4 mph 17.3 mph N/A   Clear
1:11 PM 26.6 °F 16.8 °F 19.4 °F 74% 29.78 in 10.0 mi WNW 10.4 mph - N/A   Scattered Clouds
1:32 PM 26.6 °F 17.5 °F 19.4 °F 74% 29.79 in 10.0 mi WNW 9.2 mph - N/A   Mostly Cloudy
1:51 PM 26.6 °F 15.7 °F 17.6 °F 69% 29.81 in 10.0 mi WNW 12.7 mph 17.3 mph N/A   Overcast
2:11 PM 26.6 °F 13.8 °F 10.4 °F 51% 29.82 in 10.0 mi WNW 17.3 mph - N/A   Overcast
2:32 PM 26.6 °F 14.7 °F 6.8 °F 43% 29.85 in 10.0 mi WNW 15.0 mph - N/A   Scattered Clouds
2:51 PM 26.6 °F 16.2 °F 5.0 °F 40% 29.87 in 10.0 mi NW 11.5 mph 20.7 mph N/A   Scattered Clouds
3:11 PM 26.6 °F 16.8 °F 8.6 °F 47% 29.87 in 10.0 mi NW 10.4 mph - N/A   Mostly Cloudy
3:32 PM 24.8 °F 13.4 °F 8.6 °F 50% 29.89 in 10.0 mi NW 12.7 mph 17.3 mph N/A   Scattered Clouds
3:51 PM 24.8 °F 13.4 °F 1.4 °F 36% 29.91 in 10.0 mi NW 12.7 mph 16.1 mph N/A   Clear
4:11 PM 23.0 °F 11.7 °F 3.2 °F 43% 29.93 in 10.0 mi NW 11.5 mph 16.1 mph N/A   Clear
4:32 PM 21.2 °F 9.5 °F 1.4 °F 42% 29.96 in 10.0 mi NW 11.5 mph 18.4 mph N/A   Clear
4:51 PM 21.2 °F 9.5 °F -0.4 °F 39% 29.97 in 10.0 mi WNW 11.5 mph - N/A   Clear
5:11 PM 19.4 °F 8.6 °F 1.4 °F 46% 29.99 in 10.0 mi WNW 9.2 mph - N/A   Clear
5:32 PM 19.4 °F 7.2 °F 1.4 °F 46% 30.01 in 10.0 mi NW 11.5 mph - N/A   Clear
5:51 PM 17.6 °F 7.3 °F -0.4 °F 45% 30.01 in 10.0 mi WNW 8.1 mph - N/A   Clear
6:11 PM 17.6 °F 7.3 °F -0.4 °F 45% 30.03 in 10.0 mi NW 8.1 mph - N/A   Clear
6:30 PM 17.6 °F 8.2 °F -0.4 °F 45% 30.06 in 10.0 mi WNW 6.9 mph - N/A   Clear
6:51 PM 15.8 °F 6.1 °F -0.4 °F 49% 30.09 in 10.0 mi West 6.9 mph - N/A   Clear
7:11 PM 14.0 °F 5.1 °F -0.4 °F 53% 30.09 in 10.0 mi West 5.8 mph - N/A   Clear
7:31 PM 14.0 °F 2.9 °F -0.4 °F 53% 30.09 in 10.0 mi WNW 8.1 mph - N/A   Clear
7:51 PM 14.0 °F 2.9 °F -0.4 °F 53% 30.11 in 10.0 mi WNW 8.1 mph - N/A   Clear
8:11 PM 12.2 °F -0.2 °F -2.2 °F 53% 30.12 in 10.0 mi WNW 9.2 mph - N/A   Clear
8:51 PM 12.2 °F 0.7 °F -5.8 °F 45% 30.13 in 10.0 mi WNW 8.1 mph - N/A   Clear
9:11 PM 10.4 °F -0.4 °F -7.6 °F 44% 30.14 in 10.0 mi West 6.9 mph - N/A   Clear
9:32 PM 10.4 °F -1.5 °F -5.8 °F 48% 30.15 in 10.0 mi WNW 8.1 mph - N/A   Clear
9:51 PM 10.4 °F -0.4 °F -7.6 °F 44% 30.15 in 10.0 mi West 6.9 mph - N/A   Clear
10:11 PM 8.6 °F -3.7 °F -5.8 °F 52% 30.16 in 10.0 mi WNW 8.1 mph - N/A   Clear
10:32 PM 8.6 °F -3.7 °F -9.4 °F 44% 30.18 in 10.0 mi WNW 8.1 mph - N/A   Clear
10:51 PM 8.6 °F -3.7 °F -7.6 °F 48% 30.19 in 10.0 mi WNW 8.1 mph - N/A   Clear
11:11 PM 8.6 °F -6.3 °F -7.6 °F 48% 30.21 in 10.0 mi WNW 11.5 mph - N/A   Clear
11:32 PM 8.6 °F -4.7 °F -7.6 °F 48% 30.22 in 10.0 mi WNW 9.2 mph - N/A   Clear
11:51 PM 6.8 °F -3.5 °F -7.6 °F 52% 30.23 in 10.0 mi WNW 5.8 mph - N/A   Clear